Home   Weather   Georgsmarienhütte   Past weeks

Flag for Germany Past Weather in Georgsmarienhütte, Lower Saxony, Germany — Yesterday and Last 2 Weeks

Now
21 °F

Clear.


Feels Like: 21 °F
Forecast: 27 / 36 °F
Wind: No wind

Location: Muenster / Osnabrueck

Current Time: Jan 20, 2017 at 8:42:59 am

Latest Report: Jan 20, 2017 at 7:50 am


Visibility: 10 mi

Pressure: 30.60 "Hg

Humidity: 93%

Dew Point: 19 °F

Location of GeorgsmarienhütteLocation

Past Weather in Georgsmarienhütte — Graph

°F

Georgsmarienhütte Temperature Yesterday

Maximum temperature yesterday: 37 °F (at 1:50 pm)
Minimum temperature yesterday: 23 °F (at 9:50 pm)
Average temperature yesterday: 29 °F

High & Low Weather Summary for the Past Weeks

 TemperatureHumidityPressure
High46 °F (Jan 11, 1:50 pm)100% (Jan 7, 4:20 pm)30.74 "Hg (Jan 7, 4:20 pm)
Low16 °F (Jan 6, 5:20 am)41% (Jan 19, 3:20 pm)28.94 "Hg (Jan 13, 2:20 am)
Average32 °F88%30.19 "Hg
* Reported Jan 5 7:20 am — Jan 20 7:20 am, Georgsmarienhütte, Weather by CustomWeather, © 2017

Note: Actual official high and low records may vary slightly from our data, if they occured in-between our weather recording intervals... More about our weather records

Advertising

Georgsmarienhütte Weather History for the Previous 24 Hours

Scroll right to see more
 ConditionsComfort  
Time TempWeatherWind HumidityBarometerVisibility
7:20 am
Fri, Jan 20
21 °FClear.No wind93%30.60 "Hg10 mi
6:50 am21 °FClear.No wind93%30.60 "Hg10 mi
6:20 am23 °FClear.No wind86%30.60 "Hg10 mi
5:50 am23 °FClear.No wind93%30.60 "Hg10 mi
5:20 am23 °FClear.No wind93%30.60 "Hg10 mi
4:50 am23 °FClear.No wind93%30.60 "Hg10 mi
4:20 am21 °FClear.No wind93%30.60 "Hg10 mi
3:50 am21 °FClear.1 mph93%30.60 "Hg10 mi
3:20 am21 °FClear.No wind93%30.60 "Hg10 mi
2:50 am21 °FClear.No wind93%30.60 "Hg10 mi
2:20 am21 °FClear.No wind100%30.60 "Hg10 mi
1:50 am21 °FClear.2 mph100%30.60 "Hg10 mi
1:20 am23 °FClear.No wind86%30.63 "Hg10 mi
12:50 am23 °FClear.1 mph93%30.63 "Hg10 mi
12:20 am23 °FClear.No wind86%30.63 "Hg10 mi
11:50 pm
Thu, Jan 19
23 °FClear.No wind93%30.63 "Hg10 mi
11:20 pm25 °FClear.No wind86%30.63 "Hg10 mi
10:50 pm25 °FClear.No wind93%30.63 "Hg10 mi
10:20 pm23 °FClear.1 mph86%30.63 "Hg10 mi
9:50 pm23 °FClear.2 mph93%30.63 "Hg10 mi
9:20 pm25 °FClear.2 mph86%30.66 "Hg10 mi
8:50 pm27 °FClear.2 mph86%30.63 "Hg10 mi
8:20 pm27 °FClear.No wind80%30.63 "Hg10 mi
7:50 pm27 °FClear.2 mph80%30.63 "Hg10 mi
7:20 pm28 °FClear.No wind74%30.63 "Hg10 mi
6:50 pm27 °FClear.No wind80%30.63 "Hg10 mi
6:20 pm28 °FClear.No wind69%30.63 "Hg10 mi
5:50 pm28 °FClear.1 mph69%30.63 "Hg10 mi
5:20 pm32 °FClear.2 mph60%30.63 "Hg10 mi
4:50 pm34 °FSunny.3 mph56%30.63 "Hg10 mi
4:20 pm37 °FSunny.No wind45%30.63 "Hg10 mi
3:50 pm37 °FSunny.1 mph41%30.63 "Hg10 mi
3:20 pm37 °FPassing clouds.3 mph41%30.63 "HgN/A
2:50 pm37 °FPassing clouds.3 mph45%30.63 "HgN/A
2:20 pm37 °FSunny.1 mph45%30.63 "Hg10 mi
1:50 pm37 °FSunny.2 mph45%30.63 "Hg10 mi
1:20 pm36 °FSunny.3 mph48%30.66 "Hg10 mi
12:50 pm36 °FPassing clouds.3 mph52%30.66 "HgN/A
12:20 pm34 °FPassing clouds.5 mph56%30.66 "HgN/A
11:50 am32 °FSunny.2 mph64%30.66 "Hg10 mi
11:20 am30 °FSunny.2 mph69%30.69 "Hg10 mi
10:50 am30 °FPassing clouds.3 mph69%30.66 "HgN/A
10:20 am30 °FSunny.2 mph69%30.66 "Hg10 mi
9:50 am28 °FSunny.1 mph80%30.66 "Hg10 mi
9:20 am27 °FSunny.1 mph86%30.66 "Hg10 mi
8:50 am25 °FPassing clouds.2 mph86%30.66 "HgN/A
8:20 am25 °FPassing clouds.1 mph86%30.66 "HgN/A
Weather by CustomWeather, © 2017

See weather overviewHow to use our weather pages